Regional Weather Roundup
Issued by NWS Cleveland, OH

Home | Current Version | Previous Version | Graphics & Text | Print | Product List | Glossary On
Versions: 1 2 3 4 5 6 7 8 9 10 11 12 13 14 15 16 17 18 19 20 21 22 23 24 25 26 27 28 29 30 31 32 33 34 35 36 37 38 39 40 41 42 43 44 45 46 47 48 49 50
000
ASUS41 KCLE 190300
RWRCLE
OHIO REGIONAL WEATHER ROUNDUP
NATIONAL WEATHER SERVICE WILMINGTON, OH
1100 PM EDT FRI AUG 18 2017

NOTE: "FAIR" INDICATES FEW OR NO CLOUDS BELOW 12,000 FEET WITH NO
SIGNIFICANT WEATHER AND/OR OBSTRUCTIONS TO VISIBILITY.

OHZ001>008-015>018-024>027-034-035-043-044-190400-
   NORTHWEST OHIO

CITY           SKY/WX    TMP DP  RH WIND       PRES   REMARKS
DEFIANCE       FAIR      66  62  87 CALM      29.89R
FINDLAY        FAIR      69  62  78 SW5       29.89R
TOLEDO EXPRESS FAIR      68  63  84 CALM      29.88R
TOLEDO EXEC    FAIR      68  63  84 NW5       29.89R
LIMA           FAIR      67  64  90 SW3       29.91R
$$

OHZ009>014-019>023-028>033-038-089-190400-
   NORTHEAST OHIO

CITY           SKY/WX    TMP DP  RH WIND       PRES   REMARKS
CLE-HOPKINS    FAIR      73  63  70 W6        29.89R
CLE-LAKEFRONT  FAIR      74  65  73 W14       29.86R
CUY CO. ARPT   PTCLDY    73  64  73 NW12      29.88R
LORAIN-ELYRIA  MOCLDY    68  60  75 SW5       29.89R
ASHTABULA      FAIR      66  64  93 CALM      29.88R
AKRON-CANTON   FAIR      71  60  68 W6        29.90R
WOOSTER        NOT AVBL
MANSFIELD      FAIR      68  62  81 W5        29.92R
YOUNGSTOWN     FAIR      66  63  90 CALM      29.89R
$$

OHZ042-051>053-060>062-070>072-077>081-190400-
  SOUTHWEST OHIO

CITY           SKY/WX    TMP DP  RH WIND       PRES   REMARKS
CINC-COVINGTON FAIR      73  66  78 SW6       29.94R
CINC-LUNKEN    FAIR      69  67  93 CALM      29.93S
HAMILTON       FAIR      67  66  97 CALM      29.93S
DAYTON         NOT AVBL
WRIGHT-PAT AFB FAIR      71  65  80 S5        29.92R
DAYTON GENERAL FAIR      71  63  75 SW6       29.92S
WILMINGTON     FAIR      67  65  93 SW3       29.93S
$$

OHZ036-037-039>041-045>050-054>059-063>069-073>076-082>088-190400-
  CENTRAL AND SOUTHEAST OHIO

CITY           SKY/WX    TMP DP  RH WIND       PRES   REMARKS
COLUMBUS       FAIR      75  65  70 SW6       29.91R
OSU AIRPORT    FAIR      71  65  81 W6        29.91R
BOLTON FIELD   NOT AVBL
RICKENBACK AFB NOT AVBL
NEWARK         FAIR      70  64  81 SW3       29.91R
MARION         FAIR      70  62  76 W3        29.92R
LANCASTER      FAIR      72  64  76 W7        29.92R
ZANESVILLE     FAIR      70  65  84 SW5       29.91R
NEW PHILLY     FAIR      68  66  93 CALM      29.91R
$$



USA.gov is the U.S. government's official web portal to all federal, state and local government web resources and services.